CAPE
1 0 0 0 1 4 6 7 1 4 3 2 2 5 4 2 9 0 0 0 0 0 0 0 0 0 0 0 0 0 0 0 0 0 0 0 0 0 14 0 0 0 0 0 0 0 0 0 0 0 0 0 0 0
1 0 2 0 0 0 3 4 4 3 3 3 2 7 9 10 7 0 0 0 0 0 0 0 0 0 0 0 0 0 0 0 0 0 0 1 29 0 0 69 0 2 0 0 0 0 0 0 0 0 0 0 0 0
1 0 1 0 0 0 3 4 3 2 4 3 3 3 7 7 6 1 0 0 0 0 0 0 0 0 0 0 0 0 0 0 0 0 0 0 0 0 0 0 2 0 0 0 0 0 0 0 0 0 0 0 0 0
0 1 0 0 0 1 3 4 3 2 2 2 3 2 4 4 2 0 0 0 0 0 0 0 0 0 0 0 0 0 0 0 0 0 0 0 0 0 0 0 0 0 0 0 0 0 0 0 0 0 0 0 0 0
0 1 0 0 0 3 4 4 2 1 1 1 2 2 1 1 0 0 0 0 0 0 0 0 0 0 0 0 0 0 0 0 0 0 0 0 0 0 0 0 0 0 0 0 0 0 0 0 0 0 0 0 0 0
0 1 0 0 2 1 2 3 2 1 1 1 0 0 0 0 0 0 0 0 0 0 0 0 0 0 0 0 0 0 0 0 0 0 0 0 0 0 0 0 0 0 0 0 0 0 0 0 0 0 0 0 0 0
0 0 1 1 1 2 2 2 1 1 0 0 0 0 0 0 0 0 0 0 0 0 0 0 0 0 0 0 0 0 0 0 0 0 0 0 0 0 0 0 0 0 0 0 0 0 0 0 0 0 0 0 0 0
0 1 0 0 0 1 2 2 1 0 0 0 0 0 0 0 0 0 0 0 0 0 0 0 0 0 0 0 0 0 0 0 0 0 0 54 2 0 7 0 0 0 0 0 0 0 0 0 0 0 0 0 0 0
0 1 0 0 0 1 1 1 1 0 0 0 0 0 0 0 0 0 0 0 0 0 0 0 0 0 0 0 0 0 0 0 0 9 20 43 23 23 13 0 0 0 0 0 0 0 0 0 0 0 0 0 0 0
0 0 0 0 0 0 0 1 0 0 0 0 0 0 0 0 0 0 0 0 0 0 0 0 0 0 0 0 0 0 0 0 0 0 15 12 14 67 21 5 0 0 0 5 0 0 0 0 0 0 0 0 0 0
0 0 0 0 0 0 0 0 0 0 0 0 0 0 0 0 0 0 0 7 0 0 0 0 0 0 0 0 0 0 0 0 7 6 8 0 0 39 2 1 3 0 3 0 1 0 0 0 0 0 0 1 1 0
0 0 0 0 0 0 0 0 0 0 0 0 0 0 0 0 0 5 1 14 4 13 0 0 0 0 0 0 0 0 0 2 1 5 19 10 17 0 4 18 0 18 45 21 17 0 18 32 9 1 3 4 8 0
0 0 0 0 0 0 0 0 0 0 0 0 0 0 0 0 4 26 24 22 28 34 0 0 0 0 0 0 0 0 0 0 0 10 31 109 0 0 0 1 36 33 27 8 6 27 30 47 21 29 28 28 13 5
0 0 0 0 0 0 0 0 0 0 0 0 0 2 0 0 10 17 31 28 27 40 27 5 8 0 3 3 0 0 0 4 5 22 44 11 4 0 0 39 8 38 36 31 5 72 94 146 152 98 38 36 10 2
0 0 0 0 0 0 0 0 0 0 0 0 0 0 0 14 11 31 45 3 19 4 34 1 0 0 1 0 0 0 1 24 21 7 8 11 17 0 0 46 56 77 22 55 48 122 131 104 104 100 91 57 38 55
0 0 0 0 0 0 0 0 0 0 0 0 0 0 4 24 30 8 10 12 1 9 14 4 4 18 7 1 22 31 31 27 3 0 0 9 30 36 9 5 2 33 59 56 74 47 112 119 117 100 89 72 13 54
0 0 0 0 0 0 0 0 0 0 0 0 0 2 16 14 9 33 26 25 12 61 22 24 44 34 8 21 7 65 15 0 0 0 1 0 1 50 4 33 24 35 34 29 29 0 12 13 0 20 51 0 1 9
0 0 0 0 0 0 0 0 0 0 0 0 0 6 3 2 1 11 4 1 22 48 25 35 5 8 15 17 2 0 0 0 0 3 1 0 9 28 44 28 7 19 15 22 50 26 6 16 0 0 0 0 0 0
0 0 0 0 1 0 0 0 0 0 0 1 1 1 6 13 11 15 8 52 12 11 43 16 13 3 6 1 0 0 0 0 0 8 2 0 0 3 6 0 8 12 40 15 34 46 2 8 0 0 0 0 0 0
0 0 0 0 0 0 0 0 1 0 0 0 0 1 1 3 0 8 4 25 18 15 16 11 3 1 0 0 0 0 0 0 0 3 0 0 0 13 0 0 0 0 12 22 1 0 0 0 1 7 26 4 0 0
0 0 0 0 0 0 0 0 0 5 0 0 0 3 18 9 17 11 15 1 4 7 10 5 11 0 0 0 0 0 0 0 5 0 0 0 0 0 0 0 0 6 7 0 0 0 8 4 4 6 30 43 2 0
0 0 0 0 2 2 0 0 0 0 0 0 0 13 14 11 16 10 2 47 80 18 0 0 0 0 10 10 0 0 0 0 0 0 0 0 0 0 0 0 0 1 0 0 0 11 15 26 28 35 30 21 23 6
0 0 0 13 2 0 0 0 2 11 9 10 6 20 19 19 27 18 30 53 53 1 0 21 19 28 1 0 0 0 0 0 0 0 0 0 0 0 0 0 0 0 0 0 0 5 9 13 13 11 8 0 1 0
0 0 5 4 2 0 0 3 16 11 14 22 9 21 22 9 28 19 45 18 3 0 12 25 2 0 0 0 0 0 0 0 0 0 0 0 4 12 2 0 2 2 0 0 0 0 0 2 1 12 40 0 0 0
0 0 0 0 0 0 1 5 11 12 15 27 41 26 29 45 49 16 28 24 0 0 32 34 0 0 0 0 0 0 0 1 1 0 0 0 6 23 18 26 8 7 30 14 16 3 1 1 11 27 0 0 0 0
2 0 0 0 4 3 7 6 10 15 10 19 31 18 13 28 17 25 14 3 3 35 45 2 0 0 0 0 0 0 24 19 0 0 0 0 0 6 10 20 19 5 4 12 8 17 50 54 20 6 0 0 0 0
0 0 0 0 1 5 6 5 5 8 9 15 15 18 20 19 28 35 26 5 4 20 33 1 0 0 0 0 0 6 10 5 2 0 1 0 0 0 2 19 55 0 0 1 0 0 0 2 5 0 0 0 0 0
0 0 0 1 4 3 6 0 1 5 8 16 21 15 31 40 27 31 37 30 46 5 2 0 0 0 1 0 0 0 0 0 0 14 15 13 33 46 39 29 34 13 0 0 0 0 0 0 0 0 0 0 0 0
0 0 0 0 1 1 5 8 8 13 1 13 13 7 3 10 30 26 1 0 1 16 1 12 0 0 9 0 1 0 0 0 2 9 5 2 1 0 0 0 0 0 0 0 0 0 0 0 0 0 0 0 0 0
0 0 1 5 7 2 0 0 0 0 0 5 0 0 0 2 13 22 20 12 5 8 12 11 6 1 7 3 0 0 0 0 0 18 23 1 0 0 0 0 0 0 0 0 0 0 0 0 0 0 0 0 0 0
0 2 2 1 2 8 0 0 2 1 0 0 0 0 7 15 20 9 4 5 9 6 7 0 4 0 0 2 5 3 3 0 1 0 1 0 0 0 0 0 0 0 0 0 0 0 0 0 0 0 0 0 0 0
1 2 3 6 0 4 10 4 1 0 28 49 26 36 7 5 24 8 4 4 7 10 7 14 2 6 0 1 0 0 0 0 0 0 0 0 0 0 0 0 0 0 0 0 0 0 0 0 0 0 0 0 0 0
17 11 12 4 4 36 6 42 30 24 2 10 32 36 15 11 15 0 1 1 1 12 22 2 0 0 2 0 0 0 0 0 0 0 0 0 0 0 0 0 0 0 0 0 0 0 0 0 0 0 0 0 0 0
CIN
-0 -0 -0 -0 -0 -0 -0 -0 -0 -0 -0 -0 -0 -0 -0 -0 -0 -0 -0 -0 -0 -0 -0 -0 -0 -0 -0 -0 -0 -0 -0 -0 -0 -0 -0 -0 -0 -0 -40 -0 -0 -0 -0 -0 -0 -0 -0 -0 -0 -0 -0 -0 -0 -0
-0 -0 -0 -0 -0 -0 -0 -0 -0 -0 -0 -0 -0 -0 -0 -0 -0 -0 -0 -0 -0 -0 -0 -0 -0 -0 -0 -0 -0 -0 -0 -0 -0 -0 -0 -191 -68 -0 -0 -34 -0 -36 -0 -0 -0 -0 -0 -0 -0 -0 -0 -0 -0 -0
-0 -0 -0 -0 -0 -0 -0 -0 -0 -0 -0 -0 -0 -0 -0 -0 -0 -0 -0 -0 -0 -0 -0 -0 -0 -0 -0 -0 -0 -0 -0 -0 -0 -0 -0 -0 -0 -0 -0 -0 -21 -0 -0 -0 -0 -0 -0 -0 -0 -0 -0 -0 -0 -0
-0 -0 -0 -0 -0 -0 -0 -0 -0 -0 -0 -0 -0 -0 -0 -0 -0 -0 -0 -0 -0 -0 -0 -0 -0 -0 -0 -0 -0 -0 -0 -0 -0 -0 -0 -0 -0 -0 -0 -0 -0 -0 -0 -0 -0 -0 -0 -0 -0 -0 -0 -0 -0 -0
-0 -0 -0 -0 -0 -0 -0 -0 -0 -0 -0 -0 -0 -0 -0 -0 -0 -0 -0 -0 -0 -0 -0 -0 -0 -0 -0 -0 -0 -0 -0 -0 -0 -0 -0 -0 -0 -0 -0 -0 -81 -0 -0 -0 -0 -0 -0 -0 -0 -0 -0 -0 -0 -0
-0 -0 -0 -0 -0 -0 -0 -0 -0 -0 -0 -0 -0 -0 -0 -0 -0 -0 -0 -0 -0 -0 -0 -0 -0 -0 -0 -0 -0 -0 -0 -0 -0 -0 -0 -0 -0 -0 -0 -0 -0 -0 -0 -0 -0 -0 -0 -0 -0 -0 -0 -0 -0 -0
-0 -0 -0 -0 -0 -0 -0 -0 -0 -0 -0 -0 -0 -0 -0 -0 -0 -0 -0 -0 -0 -0 -0 -0 -0 -0 -0 -0 -0 -0 -0 -0 -0 -0 -0 -0 -0 -0 -0 -0 -0 -0 -0 -0 -0 -0 -0 -0 -0 -0 -0 -0 -0 -0
-0 -0 -0 -0 -0 -0 -0 -0 -0 -0 -0 -0 -0 -0 -0 -0 -0 -0 -0 -0 -0 -0 -0 -0 -0 -0 -0 -0 -0 -0 -0 -0 -0 -0 -0 -56 -47 -0 -123 -0 -0 -0 -0 -0 -0 -0 -0 -0 -0 -0 -0 -0 -0 -0
-0 -0 -0 -0 -0 -0 -0 -0 -0 -0 -0 -0 -0 -0 -0 -0 -0 -0 -0 -0 -0 -0 -0 -0 -0 -0 -0 -0 -0 -0 -0 -0 -0 -100 -126 -103 -137 -61 -86 -0 -0 -0 -0 -0 -0 -0 -0 -0 -0 -0 -0 -0 -0 -0
-0 -0 -0 -0 -0 -0 -0 -0 -0 -0 -0 -0 -0 -0 -0 -0 -0 -0 -0 -0 -0 -0 -0 -0 -0 -0 -0 -0 -0 -0 -0 -0 -0 -0 -203 -114 -44 -110 -176 -219 -0 -0 -0 -140 -3 -2 -0 -0 -0 -0 -0 -0 -0 -0
-0 -0 -0 -0 -0 -0 -0 -0 -0 -0 -0 -0 -0 -0 -0 -0 -0 -0 -0 -49 -8 -0 -0 -0 -0 -0 -0 -0 -0 -0 -0 -0 -4 -14 -11 -0 -0 -38 -94 -99 -153 -18 -9 -0 -18 -0 -0 -0 -0 -0 -0 -37 -18 -0
-0 -0 -0 -0 -0 -0 -0 -0 -0 -0 -0 -0 -0 -0 -0 -0 -0 -11 -43 -31 -26 -21 -0 -0 -0 -0 -0 -0 -0 -0 -5 -22 -4 -26 -10 -2 -7 -0 -52 -83 -0 -56 -32 -25 -39 -5 -43 -35 -65 -16 -42 -55 -70 -0
-0 -0 -0 -0 -0 -0 -0 -0 -0 -0 -0 -0 -0 -0 -0 -0 -27 -31 -5 -23 -23 -39 -0 -0 -0 -0 -0 -0 -0 -0 -0 -0 -0 -15 -10 -0 -9 -0 -19 -44 -56 -71 -106 -160 -114 -25 -27 -32 -55 -44 -43 -72 -70 -75
-0 -0 -0 -0 -0 -0 -0 -0 -0 -0 -0 -0 -0 -23 -0 -2 -26 -23 -23 -33 -63 -45 -53 -44 -58 -0 -86 -69 -0 -0 -0 -18 -18 -11 -26 -103 -118 -0 -0 -86 -73 -88 -79 -110 -130 -61 -17 -32 -26 -42 -65 -68 -57 -54
-0 -0 -0 -0 -0 -0 -0 -0 -0 -0 -0 -0 -0 -12 -2 -39 -60 -45 -35 -68 -89 -151 -76 -50 -0 -0 -47 -6 -0 -0 -5 -9 -24 -32 -72 -107 -120 -0 -0 -67 -69 -92 -96 -72 -81 -42 -40 -55 -54 -54 -63 -69 -75 -41
-0 -0 -0 -0 -0 -0 -0 -0 -0 -0 -0 -0 -0 -0 -36 -25 -23 -12 -39 -39 -42 -113 -144 -136 -32 -35 -29 -7 -36 -22 -20 -32 -25 -0 -0 -167 -154 -149 -84 -92 -35 -58 -53 -57 -55 -50 -36 -40 -49 -62 -83 -90 -90 -66
-0 -0 -0 -0 -0 -0 -0 -0 -0 -0 -0 -0 -13 -51 -27 -32 -37 -27 -36 -36 -160 -46 -27 -51 -13 -10 -77 -46 -64 -21 -23 -0 -0 -0 -123 -0 -11 -112 -152 -113 -82 -53 -33 -42 -57 -0 -26 -59 -5 -74 -60 -0 -20 -103
-0 -0 -0 -0 -0 -0 -0 -0 -0 -0 -0 -0 -0 -29 -58 -45 -45 -42 -73 -41 -42 -24 -55 -14 -69 -22 -15 -14 -42 -0 -0 -0 -0 -32 -79 -0 -122 -100 -101 -61 -128 -99 -82 -63 -58 -71 -71 -80 -0 -0 -0 -0 -0 -0
-0 -0 -0 -0 -0 -0 -0 -3 -0 -0 -0 -14 -33 -35 -58 -57 -87 -92 -92 -80 -132 -69 -51 -51 -27 -14 -34 -38 -5 -0 -0 -0 -0 -103 -54 -0 -0 -115 -59 -18 -63 -94 -78 -87 -77 -63 -41 -95 -0 -15 -0 -0 -0 -0
-0 -0 -0 -0 -0 -0 -0 -0 -34 -0 -0 -11 -11 -38 -69 -41 -0 -68 -37 -40 -72 -54 -38 -35 -41 -56 -0 -0 -0 -0 -0 -0 -0 -28 -0 -0 -0 -56 -0 -0 -0 -0 -103 -132 -42 -0 -0 -0 -95 -84 -92 -73 -0 -0
-0 -0 -0 -0 -0 -0 -0 -0 -0 -34 -0 -0 -0 -63 -25 -63 -30 -31 -24 -46 -59 -80 -41 -101 -95 -0 -0 -96 -0 -0 -0 -0 -45 -0 -0 -0 -0 -0 -0 -0 -0 -138 -121 -0 -0 -0 -87 -91 -131 -180 -147 -121 -107 -0
-0 -0 -0 -7 -11 -20 -0 -0 -0 -0 -0 -0 -6 -49 -23 -20 -30 -29 -32 -30 -42 -85 -0 -0 -0 -0 -102 -51 -0 -0 -0 -0 -0 -0 -0 -0 -0 -0 -0 -8 -0 -42 -0 -0 -5 -100 -102 -134 -164 -146 -165 -153 -131 -90
-0 -0 -0 -13 -10 -0 -0 -0 -15 -23 -19 -23 -32 -14 -9 -19 -22 -63 -14 -56 -88 -88 -14 -121 -47 -75 -23 -0 -0 -0 -0 -0 -0 -0 -0 -0 -0 -0 -0 -0 -0 -0 -0 -0 -0 -133 -76 -161 -175 -167 -128 -0 -53 -0
-0 -0 -3 -7 -9 -0 -0 -26 -34 -30 -30 -22 -21 -7 -9 -8 -20 -19 -11 -89 -67 -0 -93 -65 -20 -0 -0 -0 -0 -0 -0 -0 -0 -0 -0 -0 -35 -31 -68 -0 -63 -52 -0 -0 -0 -0 -0 -189 -148 -133 -114 -0 -0 -0
-0 -0 -0 -0 -0 -17 -31 -15 -7 -15 -13 -10 -6 -4 -10 -21 -4 -15 -23 -71 -0 -0 -79 -72 -0 -0 -0 -0 -0 -1 -0 -60 -16 -0 -0 -0 -103 -95 -73 -58 -68 -73 -80 -93 -108 -111 -76 -140 -135 -89 -0 -0 -0 -0
-0 -0 -0 -0 -18 -21 -7 -4 -7 -10 -16 -8 -3 -13 -20 -15 -10 -17 -46 -51 -61 -70 -62 -34 -0 -0 -0 -0 -0 -3 -20 -83 -36 -0 -0 -0 -0 -157 -132 -108 -134 -82 -162 -122 -110 -107 -98 -84 -75 -14 -0 -0 -0 -0
-2 -0 -0 -0 -38 -15 -8 -10 -11 -7 -5 -4 -4 -6 -8 -7 -9 -38 -73 -72 -76 -67 -74 -20 -0 -0 -0 -0 -0 -67 -94 -93 -116 -0 -70 -0 -0 -0 -93 -156 -98 -0 -0 -63 -0 -0 -0 -33 -17 -0 -0 -0 -0 -0
-0 -0 -0 -22 -22 -26 -9 -1 -13 -9 -7 -11 -12 -5 -11 -12 -11 -33 -65 -92 -63 -103 -89 -48 -0 -77 -72 -0 -0 -0 -0 -0 -0 -151 -169 -189 -148 -140 -211 -243 -203 -138 -0 -0 -0 -0 -0 -0 -0 -0 -0 -0 -0 -0
-0 -0 -0 -5 -32 -18 -17 -16 -23 -26 -33 -16 -13 -3 -7 -30 -43 -61 -87 -0 -45 -101 -23 -89 -0 -10 -102 -0 -90 -0 -0 -0 -103 -60 -91 -66 -71 -0 -0 -0 -0 -0 -0 -0 -0 -0 -0 -0 -0 -0 -0 -0 -0 -0
-0 -0 -16 -28 -15 -27 -0 -19 -17 -22 -0 -40 -0 -0 -66 -32 -41 -64 -62 -81 -68 -52 -60 -58 -83 -44 -82 -83 -9 -0 -31 -0 -0 -99 -74 -27 -0 -0 -0 -0 -0 -0 -0 -0 -0 -0 -0 -0 -0 -0 -0 -0 -0 -0
-7 -31 -46 -23 -7 -24 -29 -0 -39 -32 -18 -0 -0 -0 -41 -46 -56 -72 -68 -56 -49 -49 -36 -0 -81 -0 -43 -47 -72 -61 -48 -0 -34 -0 -47 -0 -0 -0 -0 -0 -0 -0 -0 -0 -0 -0 -0 -0 -0 -0 -0 -0 -0 -0
-32 -38 -26 -16 -18 -33 -51 -54 -47 -0 -26 -16 -29 -46 -51 -46 -13 -29 -41 -36 -24 -27 -25 -37 -62 -52 -6 -55 -0 -0 -2 -2 -0 -0 -0 -0 -0 -0 -0 -0 -0 -0 -0 -0 -0 -0 -0 -0 -0 -0 -0 -0 -0 -0
-22 -16 -18 -25 -21 -12 -49 -21 -20 -32 -38 -29 -19 -31 -32 -32 -10 -0 -17 -14 -42 -40 -31 -51 -0 -0 -46 -0 -0 -0 -0 -0 -0 -0 -0 -0 -0 -0 -0 -0 -0 -0 -0 -0 -0 -0 -0 -0 -0 -0 -0 -0 -0 -0
Wind_Speed
16 16 16 19 19 18 20 20 22 21 21 22 22 22 22 21 17 8 6 4 3 2 7 3 3 3 5 3 3 6 6 7 5 5 3 3 3 5 2 4 7 7 7 3 4 5 4 1 3 6 6 4 7 6
15 15 15 19 19 20 20 20 20 20 21 21 22 21 19 17 14 9 4 3 1 3 8 4 14 14 10 13 3 3 5 3 4 4 1 1 2 3 2 2 5 2 6 7 4 5 4 5 13 6 7 8 5 8
14 14 15 18 19 20 19 20 20 21 21 21 22 22 19 16 12 6 4 4 3 2 6 3 3 6 4 8 5 3 4 3 4 5 4 2 1 3 2 3 1 6 2 6 7 1 6 8 6 7 8 10 8 6
13 14 17 18 19 20 19 20 21 21 22 22 21 21 19 16 11 5 2 2 1 2 1 8 5 6 9 3 3 5 5 3 0 2 2 1 1 2 3 5 3 5 5 6 5 3 8 5 6 8 8 8 9 9
13 14 18 19 19 19 20 21 21 22 22 23 22 21 20 17 13 5 3 4 1 3 2 6 11 6 3 4 7 7 3 3 2 3 1 3 2 2 1 4 3 2 8 6 6 8 6 6 6 8 8 6 7 10
13 14 17 19 19 19 20 21 22 23 23 23 22 21 18 15 11 2 4 2 2 2 2 4 5 5 7 5 6 7 3 2 3 3 3 3 3 4 4 3 4 5 3 7 7 5 8 8 8 5 7 8 7 9
13 14 14 19 18 19 20 21 22 23 25 24 23 21 17 11 1 3 5 4 4 2 2 5 5 4 6 6 5 5 6 3 2 2 1 2 3 4 3 4 7 5 8 9 8 12 7 4 5 8 8 7 9 7
13 13 18 18 18 19 20 21 23 24 26 28 25 20 13 6 5 4 3 5 5 1 2 1 5 5 6 4 5 4 5 4 5 4 4 2 3 3 3 3 5 5 8 9 9 7 8 7 7 6 5 7 8 7
13 15 16 17 18 19 20 21 23 25 29 30 24 9 2 2 1 4 2 7 1 3 1 1 2 3 4 3 3 5 3 4 4 3 4 5 5 1 9 9 6 5 5 7 8 9 9 9 7 6 8 7 7 6
15 15 16 17 18 19 19 20 22 26 30 25 5 4 3 2 4 0 3 3 3 1 1 0 1 2 4 3 4 4 3 3 4 4 4 3 3 3 8 6 5 5 6 7 9 6 6 5 6 5 5 5 6 6
14 15 17 17 18 19 19 19 19 24 10 6 6 3 5 14 3 1 1 1 1 2 1 1 2 0 4 3 0 2 1 3 3 3 1 4 4 1 4 6 8 9 3 5 6 4 6 8 6 6 4 4 4 7
14 16 17 17 18 19 19 18 15 5 1 3 4 5 4 3 3 0 2 0 2 3 2 2 2 1 2 4 3 2 2 1 3 3 3 0 3 5 3 4 5 7 8 4 5 5 8 8 7 6 4 6 3 7
15 16 17 17 18 18 19 16 13 11 9 1 1 2 1 2 3 3 0 2 1 0 1 1 2 2 4 3 3 2 1 4 3 3 1 2 5 3 0 5 4 7 14 9 11 1 6 6 7 6 5 5 5 6
16 17 18 18 19 16 13 15 12 6 1 2 2 5 4 2 3 1 1 4 4 3 4 3 1 2 3 2 3 3 6 1 2 2 3 6 7 1 1 2 3 8 8 2 8 9 2 5 4 4 5 6 6 6
17 18 19 15 9 14 17 18 12 2 1 3 1 3 4 2 1 0 4 2 2 1 2 2 2 2 2 1 2 2 2 2 2 2 2 4 5 6 4 3 6 7 8 3 5 2 2 3 4 2 1 3 6 4
16 18 2 6 13 18 21 11 2 3 3 3 4 3 3 2 1 5 2 2 2 3 2 3 1 0 3 2 1 1 4 2 3 3 5 4 4 6 6 6 7 7 3 2 1 1 0 2 1 2 3 5 4 7
14 4 3 11 18 22 13 2 1 4 4 3 4 3 3 2 4 3 3 2 1 3 2 1 2 3 0 1 1 4 3 2 4 6 5 5 7 6 3 5 4 3 1 2 2 3 1 2 1 2 4 4 2 3
5 5 14 17 14 7 3 2 2 3 4 4 1 5 3 1 1 2 1 1 1 2 3 3 3 2 2 2 0 3 3 4 4 4 7 9 6 6 5 5 3 4 3 3 1 1 2 2 2 1 1 1 2 1
10 13 19 19 4 3 3 4 3 3 4 3 3 3 1 1 1 1 1 3 3 2 4 2 2 1 2 2 3 3 3 4 3 3 2 1 3 3 2 1 1 3 2 3 2 2 2 2 3 2 2 2 4 3
21 19 18 10 7 1 4 5 1 1 3 3 3 4 2 2 3 2 2 1 1 3 2 1 3 3 4 4 4 4 3 4 2 2 3 4 3 2 4 4 4 4 2 1 3 4 3 3 2 3 4 2 3 1
9 4 4 6 2 3 3 3 4 2 3 2 3 4 3 2 2 2 3 0 4 2 0 1 2 3 4 2 2 2 3 2 1 3 4 4 4 3 3 4 4 2 2 1 3 2 4 3 1 3 4 4 3 3
4 8 3 3 2 2 3 4 3 4 1 3 4 1 2 1 3 3 2 3 2 1 1 1 2 3 2 2 2 2 2 0 1 2 3 2 2 2 1 1 2 2 2 1 2 3 3 2 2 4 5 5 4 3
9 1 2 2 2 3 7 2 2 2 2 3 3 3 1 2 3 2 1 2 2 2 2 1 3 2 2 4 5 5 6 5 3 3 3 3 3 4 4 4 2 4 2 1 1 1 2 4 4 5 6 1 1 2
1 2 2 2 3 4 4 3 2 2 2 2 2 3 1 1 3 3 0 2 1 2 1 2 2 2 3 4 3 3 4 3 1 3 3 2 3 3 3 2 2 3 1 1 1 2 4 4 3 5 6 2 3 4
1 5 4 4 4 3 3 3 2 2 2 2 2 2 2 2 0 1 2 1 1 2 1 1 2 2 2 2 2 3 4 2 1 2 2 1 2 2 3 2 0 3 2 2 4 5 7 6 5 6 4 3 6 7
2 4 6 4 3 3 2 2 2 2 2 3 2 2 2 2 2 2 1 2 2 2 2 2 2 1 2 1 1 2 3 1 2 3 3 3 2 1 2 4 5 3 5 5 5 7 9 8 4 5 5 5 7 8
3 4 5 5 3 2 2 2 2 2 3 2 1 2 2 3 1 1 2 1 1 3 2 4 4 1 0 2 1 1 1 1 1 2 4 5 5 4 4 3 3 4 2 5 4 2 2 1 4 5 6 3 4 6
4 3 3 2 3 3 3 2 2 3 3 3 1 1 4 3 1 3 5 4 5 2 3 4 5 4 4 4 2 2 2 3 5 5 5 5 6 5 5 5 5 7 1 3 3 4 5 5 5 5 5 4 1 3
4 3 2 5 2 3 3 4 4 3 2 1 2 2 3 3 4 4 3 4 4 2 4 4 2 4 4 4 4 4 3 2 2 5 8 4 5 5 5 3 5 3 2 1 5 5 7 4 3 3 3 2 2 3
5 5 3 3 3 5 4 5 4 4 4 4 4 1 1 3 4 3 3 3 2 4 4 3 5 7 5 4 4 5 4 4 4 3 3 4 5 5 4 2 2 5 4 3 2 1 4 2 3 3 3 3 1 2
3 3 4 4 3 5 5 4 4 3 3 3 4 4 4 2 2 2 3 3 3 4 1 1 3 4 5 5 4 4 4 3 4 7 6 4 3 5 6 6 3 3 2 2 2 4 3 1 3 4 2 3 3 1
3 6 5 4 4 5 2 2 2 1 4 2 2 1 2 3 1 3 2 3 2 2 4 4 5 5 4 2 3 2 5 4 3 2 3 1 2 3 3 3 4 4 5 6 6 4 2 4 3 2 1 3 1 3
3 2 2 1 2 2 2 1 1 2 2 2 2 2 2 3 1 3 2 2 4 3 3 4 5 4 4 7 6 5 5 3 4 3 1 0 1 2 2 3 4 5 7 5 3 5 6 6 4 4 4 4 6 6
Wind_Direction
317 319 326 333 334 333 330 332 337 332 331 332 335 339 344 347 347 356 276 258 100 285 280 268 352 8 342 25 84 282 23 355 14 54 114 243 180 257 243 213 184 154 136 181 88 92 235 298 24 120 173 137 121 104
316 318 325 332 332 332 328 329 329 329 328 329 331 335 338 340 340 354 292 312 350 176 246 274 271 243 202 228 141 327 184 227 231 71 345 281 321 2 104 221 24 80 178 152 149 182 263 58 106 115 135 112 93 86
314 319 326 330 329 327 323 325 326 326 326 326 329 332 334 336 335 333 273 295 348 336 305 355 306 308 179 231 177 108 310 281 339 181 176 220 330 113 55 279 62 347 100 99 86 68 104 99 104 99 92 104 108 103
316 321 329 329 328 324 321 323 323 323 324 324 326 327 329 330 326 311 251 266 174 280 13 285 343 326 307 81 107 163 198 1 315 56 123 150 176 145 209 192 121 217 53 120 73 103 86 71 107 114 105 106 95 84
318 322 329 328 326 322 323 322 321 320 321 322 322 321 323 324 318 270 217 251 219 129 248 283 310 281 14 56 26 10 25 58 27 342 62 237 237 101 357 71 352 324 158 145 204 202 137 170 146 122 113 115 115 116
320 326 329 326 322 318 320 319 318 318 318 318 318 316 317 319 325 359 4 332 320 112 90 317 286 346 2 14 7 356 317 218 143 163 242 271 252 122 114 110 280 310 81 141 155 160 128 142 131 125 103 117 137 120
318 320 318 325 318 319 319 318 318 317 316 315 315 311 308 300 274 169 201 229 45 29 85 316 317 328 356 32 18 352 350 335 154 229 243 211 292 91 82 134 225 171 109 93 96 109 90 117 133 124 118 108 120 119
315 317 327 320 317 319 319 318 318 318 315 315 313 309 300 276 263 318 279 255 135 107 89 302 284 25 8 9 352 355 349 357 15 304 327 359 336 60 67 178 167 124 102 91 100 125 133 129 107 107 92 94 96 97
315 316 321 318 316 317 318 318 320 320 316 315 314 310 78 61 37 258 213 114 124 127 168 18 91 290 359 11 1 357 23 8 303 2 350 8 339 206 187 162 149 169 149 169 108 115 119 121 133 114 102 111 109 111
316 314 314 314 315 316 317 320 322 321 319 313 28 32 351 245 287 111 6 20 13 295 28 309 24 325 69 10 353 13 9 18 356 317 345 7 222 350 26 39 83 108 95 106 104 110 117 122 126 125 109 144 131 135
307 309 311 312 313 314 316 319 326 326 351 13 7 324 292 300 32 29 291 109 264 12 344 277 100 170 338 74 307 24 346 351 346 314 253 352 346 66 64 55 39 349 42 110 146 144 156 151 150 147 138 111 137 129
307 308 308 310 311 311 313 316 325 352 289 270 292 282 295 323 13 359 246 297 73 208 344 95 273 156 301 105 85 331 76 22 308 302 166 197 295 329 25 100 137 273 294 127 141 131 161 167 161 163 155 117 114 141
309 306 306 307 308 310 309 305 302 288 297 113 193 268 122 276 32 221 289 344 10 305 181 82 321 178 358 61 73 90 103 231 152 234 356 334 256 252 64 35 344 339 18 24 2 70 140 186 172 158 159 150 156 144
306 304 305 308 309 303 298 300 313 330 329 272 206 316 173 259 241 155 183 173 230 134 158 148 236 174 207 125 165 178 233 145 250 144 176 204 244 225 197 124 5 355 323 291 9 332 65 112 170 170 148 172 157 160
307 304 306 303 306 306 304 303 303 206 224 261 250 255 231 239 232 306 94 52 282 196 89 50 12 93 291 239 202 32 293 258 45 201 253 255 175 178 239 184 178 232 267 196 201 223 61 108 110 118 137 167 178 197
313 311 294 311 314 321 317 308 177 171 241 232 244 286 308 66 56 333 349 197 229 143 60 75 102 58 272 184 310 341 332 50 288 297 303 285 199 199 211 212 237 235 152 170 193 307 188 141 140 254 286 278 225 215
315 236 287 343 343 325 307 223 212 223 244 249 262 237 195 201 212 213 167 212 163 104 180 157 273 217 88 115 102 151 227 252 268 282 292 301 252 234 255 252 279 311 315 315 323 335 243 241 294 320 308 310 103 255
247 288 327 329 345 313 284 220 248 260 256 254 315 281 296 153 119 351 246 276 94 129 110 212 132 15 301 39 24 216 199 227 235 242 283 291 258 256 228 251 330 298 303 274 210 218 306 326 31 310 298 348 104 53
278 289 294 299 320 319 311 274 185 268 258 287 284 306 17 284 240 196 240 345 133 147 95 25 72 154 221 211 217 260 235 225 241 262 258 292 353 0 227 79 282 278 258 243 224 220 229 180 173 243 299 192 143 112
288 281 273 276 173 214 285 271 3 242 279 270 330 326 254 203 267 258 231 351 98 109 74 105 191 221 187 226 199 198 236 260 207 346 308 324 340 9 266 233 238 242 294 310 72 67 83 61 51 5 1 352 14 165
312 276 340 130 174 190 264 297 297 238 296 324 286 332 288 342 349 333 297 157 68 81 39 226 214 297 255 256 205 205 271 224 223 201 238 286 293 265 269 261 244 266 210 123 111 87 100 122 335 344 330 315 295 273
264 344 320 215 268 231 242 251 231 274 284 256 315 250 274 316 280 268 254 72 67 90 189 103 301 276 353 15 245 226 253 85 324 310 314 264 333 331 337 319 115 128 90 93 142 175 164 191 43 342 304 280 263 267
289 225 261 261 316 24 259 290 267 259 271 277 327 300 316 327 259 17 33 111 121 15 34 18 284 343 17 354 62 35 26 13 347 355 11 45 27 16 31 23 78 134 110 31 147 163 354 351 335 322 327 319 295 62
291 263 281 278 177 256 289 259 238 271 289 291 307 306 276 260 292 16 93 55 12 325 276 161 87 3 353 30 29 352 332 315 305 46 38 103 66 45 73 52 36 63 95 233 90 169 222 251 295 318 321 350 79 80
21 283 114 284 271 257 249 252 236 250 275 292 265 266 278 348 336 262 83 348 236 257 236 75 60 47 43 337 341 347 308 274 145 123 317 18 34 31 25 29 217 188 172 306 310 290 282 301 300 288 153 106 97 110
245 231 166 237 219 200 257 309 339 338 280 276 312 301 355 343 272 50 131 223 214 251 242 181 171 348 357 186 341 333 313 327 92 23 322 4 20 94 311 327 323 318 196 199 208 246 264 276 210 198 133 101 99 121
251 256 224 223 251 305 289 278 291 276 275 274 319 320 303 266 58 223 255 339 256 267 166 136 90 22 228 103 81 336 327 124 140 243 271 280 266 229 198 212 271 264 280 202 203 218 154 149 132 111 136 112 151 138
254 261 228 315 238 219 224 203 237 243 237 246 69 314 331 22 304 201 207 210 218 257 149 152 153 143 115 99 129 231 257 291 327 323 306 284 256 245 211 216 231 245 297 351 79 58 69 76 82 95 123 130 162 237
245 256 245 265 259 250 225 210 215 232 206 189 177 170 231 251 207 188 227 205 214 186 135 171 148 134 184 156 200 223 242 252 297 353 5 336 344 329 352 157 158 181 166 120 61 97 89 91 83 81 62 132 119 106
240 185 210 260 213 210 231 185 219 221 205 207 179 153 266 240 243 197 180 178 178 225 228 194 176 179 199 171 213 248 226 223 217 197 263 311 293 293 334 28 226 206 178 169 177 274 339 18 350 0 18 332 322 85
253 151 212 224 244 228 223 223 245 234 230 224 210 174 231 247 300 227 186 203 177 161 161 179 144 175 218 188 199 225 258 231 231 239 218 244 314 12 11 9 74 85 119 150 201 230 244 144 91 88 75 23 219 269
209 204 201 213 254 263 270 205 184 40 350 346 284 100 47 50 309 280 252 121 156 170 221 207 172 205 213 145 128 114 88 104 103 34 74 60 354 354 18 25 32 43 39 35 19 7 286 133 136 127 2 327 270 316
210 233 221 234 319 302 289 156 172 134 295 336 298 175 165 171 203 243 299 188 190 204 195 192 187 193 174 146 145 126 122 138 170 185 212 47 33 22 52 27 23 29 26 11 33 44 29 8 356 330 309 290 289 287